Tracking 17996 objects as of 28-February-2017
HD Live streaming from Space Station
objects crossing your sky now

EUTELSAT 2-F4

Track EUTELSAT 2-F4 now!
EUTELSAT 2-F4 is classified as:


NORAD ID: 22028
Int'l Code: 1992-041B
Perigee: 36,117.3 km
Apogee: 36,190.9 km
Inclination: 12.7 °
Period: 1,454.5 minutes
Semi major axis: 42525 km
RCS: 3.1622 m2 (large)
Launch date: July 9, 1992
Source: European Telecommunications Satellite Organization (EUTE)
Launch site: FRENCH GUIANA (FRGUI)
Your satellite tracking list
Your tracking list is empty





NASA's NSSDC Master Catalog

Two Line Element Set (TLE):
1 22028U 92041B   17059.07443955 -.00000213  00000-0  00000+0 0  9995
2 22028  12.7422  32.7614 0008656 214.5522 242.5457  0.99078394 82584
Source of the keplerian elements: AFSPC